Time,TemperatureF,DewpointF,PressureIn,WindDirection,WindDirectionDegrees,WindSpeedMPH,WindSpeedGustMPH,Humidity,HourlyPrecipIn,Conditions,Clouds,dailyrainin,SoftwareType,DateUTC
2015-07-04 00:01:00,77.9,53.0,29.56,NNW,337,0.0,2.0,42,0.00,,---,0.00,VWS V15.00,2015-07-04 06:01:00,
2015-07-04 00:06:00,77.6,53.4,29.57,East,89,0.0,1.0,43,0.00,,---,0.00,VWS V15.00,2015-07-04 06:06:00,
2015-07-04 00:11:00,77.3,53.1,29.57,ESE,106,0.0,1.0,43,0.00,,---,0.00,VWS V15.00,2015-07-04 06:11:00,
2015-07-04 00:16:00,77.0,53.4,29.58,WSW,239,2.0,3.0,44,0.00,,---,0.00,VWS V15.00,2015-07-04 06:16:00,
2015-07-04 00:21:00,76.9,53.3,29.59,SW,224,0.0,1.0,44,0.00,,---,0.00,VWS V15.00,2015-07-04 06:21:00,
2015-07-04 00:23:00,74.7,54.8,29.58,SW,232,0.0,1.0,50,0.00,,---,0.00,VWS V15.00,2015-07-04 06:23:00,
2015-07-04 00:24:00,74.7,54.8,29.58,SW,232,0.0,1.0,50,0.00,,---,0.00,VWS V15.00,2015-07-04 06:24:00,
2015-07-04 00:25:00,74.7,55.4,29.58,SW,232,0.0,1.0,51,0.00,,---,0.00,VWS V15.00,2015-07-04 06:25:00,
2015-07-04 00:26:00,76.8,53.9,29.59,WSW,242,1.0,1.0,45,0.00,,---,0.00,VWS V15.00,2015-07-04 06:26:00,
2015-07-04 00:27:00,74.6,55.3,29.58,SW,232,0.0,0.0,51,0.00,,---,0.00,VWS V15.00,2015-07-04 06:27:00,
2015-07-04 00:31:00,76.8,53.9,29.59,SE,143,0.0,9.0,45,0.00,,---,0.00,VWS V15.00,2015-07-04 06:31:00,
2015-07-04 00:36:00,76.9,54.0,29.60,SE,143,1.0,3.0,45,0.00,,---,0.00,VWS V15.00,2015-07-04 06:36:00,
2015-07-04 00:41:00,76.9,54.0,29.60,South,171,2.0,4.0,45,0.00,,---,0.00,VWS V15.00,2015-07-04 06:41:00,
2015-07-04 00:46:00,77.0,54.7,29.59,WNW,299,2.0,2.0,46,0.00,,---,0.00,VWS V15.00,2015-07-04 06:46:00,
2015-07-04 00:51:00,77.2,54.8,29.59,West,278,1.0,2.0,46,0.00,,---,0.00,VWS V15.00,2015-07-04 06:51:00,
2015-07-04 00:56:00,77.0,54.7,29.59,WNW,293,0.0,0.0,46,0.00,,---,0.00,VWS V15.00,2015-07-04 06:56:00,
2015-07-04 01:01:00,76.6,54.9,29.59,WNW,293,0.0,0.0,47,0.00,,---,0.00,VWS V15.00,2015-07-04 07:01:00,
2015-07-04 01:06:00,76.1,54.4,29.59,North,1,0.0,1.0,47,0.00,,---,0.00,VWS V15.00,2015-07-04 07:06:00,
2015-07-04 01:11:00,75.7,55.2,29.58,North,1,0.0,1.0,49,0.00,,---,0.00,VWS V15.00,2015-07-04 07:11:00,
2015-07-04 01:16:00,75.2,55.3,29.58,ENE,62,1.0,1.0,50,0.00,,---,0.00,VWS V15.00,2015-07-04 07:16:00,
2015-07-04 01:21:00,74.9,55.0,29.58,WNW,297,0.0,0.0,50,0.00,,---,0.00,VWS V15.00,2015-07-04 07:21:00,
2015-07-04 01:26:00,74.6,55.3,29.58,SW,232,0.0,0.0,51,0.00,,---,0.00,VWS V15.00,2015-07-04 07:26:00,
2015-07-04 01:31:00,74.4,55.1,29.59,WNW,294,0.0,1.0,51,0.00,,---,0.00,VWS V15.00,2015-07-04 07:31:00,
2015-07-04 01:36:00,74.2,54.9,29.58,NNW,347,1.0,3.0,51,0.00,,---,0.00,VWS V15.00,2015-07-04 07:36:00,
2015-07-04 01:41:00,74.2,54.9,29.58,WNW,291,0.0,1.0,51,0.00,,---,0.00,VWS V15.00,2015-07-04 07:41:00,
2015-07-04 01:42:00,75.8,53.0,29.59,SSE,165,0.0,0.0,45,0.00,,---,0.00,VWS V15.00,2015-07-04 07:42:00,
2015-07-04 01:43:00,75.8,53.0,29.59,SSE,165,0.0,0.0,45,0.00,,---,0.00,VWS V15.00,2015-07-04 07:43:00,
2015-07-04 01:44:00,75.7,52.9,29.59,SSE,165,0.0,0.0,45,0.00,,---,0.00,VWS V15.00,2015-07-04 07:44:00,
2015-07-04 01:45:00,75.7,53.5,29.59,South,172,1.0,1.0,46,0.00,,---,0.00,VWS V15.00,2015-07-04 07:45:00,
2015-07-04 01:46:00,74.0,54.7,29.59,NNW,337,1.0,2.0,51,0.00,,---,0.00,VWS V15.00,2015-07-04 07:46:00,
2015-07-04 01:47:00,75.6,53.4,29.59,NW,318,0.0,2.0,46,0.00,,---,0.00,VWS V15.00,2015-07-04 07:47:00,
2015-07-04 01:48:00,75.6,53.4,29.59,NW,318,0.0,2.0,46,0.00,,---,0.00,VWS V15.00,2015-07-04 07:48:00,
2015-07-04 01:51:00,73.9,55.2,29.59,NW,316,0.0,0.0,52,0.00,,---,0.00,VWS V15.00,2015-07-04 07:51:00,
2015-07-04 01:52:00,75.5,53.3,29.60,NW,318,0.0,0.0,46,0.00,,---,0.00,VWS V15.00,2015-07-04 07:52:00,
2015-07-04 01:53:00,75.5,53.3,29.60,NW,318,0.0,0.0,46,0.00,,---,0.00,VWS V15.00,2015-07-04 07:53:00,
2015-07-04 01:54:00,75.4,53.2,29.60,NW,317,0.0,0.0,46,0.00,,---,0.00,VWS V15.00,2015-07-04 07:54:00,
2015-07-04 01:55:00,75.4,53.2,29.60,NW,318,0.0,0.0,46,0.00,,---,0.00,VWS V15.00,2015-07-04 07:55:00,
2015-07-04 01:56:00,73.8,55.1,29.59,WNW,287,0.0,5.0,52,0.00,,---,0.00,VWS V15.00,2015-07-04 07:56:00,
2015-07-04 02:01:00,74.0,54.7,29.59,SW,228,0.0,3.0,51,0.00,,---,0.00,VWS V15.00,2015-07-04 08:01:00,
2015-07-04 02:06:00,74.1,54.8,29.59,SSE,149,1.0,1.0,51,0.00,,---,0.00,VWS V15.00,2015-07-04 08:06:00,
2015-07-04 02:11:00,74.2,54.4,29.59,SSE,165,0.0,2.0,50,0.00,,---,0.00,VWS V15.00,2015-07-04 08:11:00,
2015-07-04 02:16:00,74.4,53.5,29.59,WSW,238,1.0,2.0,48,0.00,,---,0.00,VWS V15.00,2015-07-04 08:16:00,
2015-07-04 02:21:00,74.8,53.2,29.59,SE,131,0.0,4.0,47,0.00,,---,0.00,VWS V15.00,2015-07-04 08:21:00,
2015-07-04 02:26:00,75.1,52.9,29.59,South,173,1.0,7.0,46,0.00,,---,0.00,VWS V15.00,2015-07-04 08:26:00,
2015-07-04 02:31:00,75.5,52.7,29.59,SSE,162,0.0,4.0,45,0.00,,---,0.00,VWS V15.00,2015-07-04 08:31:00,
2015-07-04 02:36:00,75.8,53.6,29.59,SE,129,0.0,1.0,46,0.00,,---,0.00,VWS V15.00,2015-07-04 08:36:00,
2015-07-04 02:41:00,75.8,53.0,29.59,SSE,165,0.0,0.0,45,0.00,,---,0.00,VWS V15.00,2015-07-04 08:41:00,
2015-07-04 02:46:00,75.7,52.9,29.59,NW,317,0.0,2.0,45,0.00,,---,0.00,VWS V15.00,2015-07-04 08:46:00,
2015-07-04 02:51:00,75.5,53.3,29.59,NW,318,0.0,0.0,46,0.00,,---,0.00,VWS V15.00,2015-07-04 08:51:00,
2015-07-04 02:56:00,75.3,53.7,29.60,NW,317,1.0,1.0,47,0.00,,---,0.00,VWS V15.00,2015-07-04 08:56:00,
2015-07-04 03:01:00,75.1,53.5,29.60,NW,317,0.0,1.0,47,0.00,,---,0.00,VWS V15.00,2015-07-04 09:01:00,
2015-07-04 03:06:00,74.9,53.9,29.60,NW,318,0.0,0.0,48,0.00,,---,0.00,VWS V15.00,2015-07-04 09:06:00,
2015-07-04 03:11:00,74.7,53.2,29.60,SE,129,0.0,1.0,47,0.00,,---,0.00,VWS V15.00,2015-07-04 09:11:00,
2015-07-04 03:16:00,74.5,54.1,29.60,SW,226,0.0,2.0,49,0.00,,---,0.00,VWS V15.00,2015-07-04 09:16:00,
2015-07-04 03:21:00,74.4,54.0,29.60,West,277,0.0,1.0,49,0.00,,---,0.00,VWS V15.00,2015-07-04 09:21:00,
2015-07-04 03:26:00,74.2,53.3,29.60,SW,219,0.0,2.0,48,0.00,,---,0.00,VWS V15.00,2015-07-04 09:26:00,
2015-07-04 03:31:00,74.1,53.7,29.60,NW,305,0.0,0.0,49,0.00,,---,0.00,VWS V15.00,2015-07-04 09:31:00,
2015-07-04 03:35:00,73.9,53.6,29.61,NW,306,0.0,1.0,49,0.00,,---,0.00,VWS V15.00,2015-07-04 09:35:00,
2015-07-04 03:40:00,73.7,53.4,29.61,North,8,0.0,2.0,49,0.00,,---,0.00,VWS V15.00,2015-07-04 09:40:00,
2015-07-04 03:45:00,73.6,53.8,29.61,North,8,0.0,1.0,50,0.00,,---,0.00,VWS V15.00,2015-07-04 09:45:00,
2015-07-04 03:46:00,72.1,53.0,29.61,NW,304,0.0,0.0,51,0.00,,---,0.00,VWS V15.00,2015-07-04 09:46:00,
2015-07-04 03:47:00,72.1,53.0,29.61,NW,304,0.0,1.0,51,0.00,,---,0.00,VWS V15.00,2015-07-04 09:47:00,
2015-07-04 03:48:00,72.1,53.5,29.61,NW,304,0.0,1.0,52,0.00,,---,0.00,VWS V15.00,2015-07-04 09:48:00,
2015-07-04 03:49:00,72.1,53.0,29.61,NW,304,0.0,1.0,51,0.00,,---,0.00,VWS V15.00,2015-07-04 09:49:00,
2015-07-04 03:50:00,73.4,53.7,29.61,NW,313,0.0,2.0,50,0.00,,---,0.00,VWS V15.00,2015-07-04 09:50:00,
2015-07-04 03:55:00,73.2,53.5,29.61,SSE,160,0.0,0.0,50,0.00,,---,0.00,VWS V15.00,2015-07-04 09:55:00,
2015-07-04 04:00:00,73.1,53.4,29.61,WNW,301,0.0,0.0,50,0.00,,---,0.00,VWS V15.00,2015-07-04 10:00:00,
2015-07-04 04:01:00,72.2,53.6,29.62,NW,309,0.0,1.0,52,0.00,,---,0.00,VWS V15.00,2015-07-04 10:01:00,
2015-07-04 04:03:00,72.2,53.1,29.62,NW,309,0.0,1.0,51,0.00,,---,0.00,VWS V15.00,2015-07-04 10:03:00,
2015-07-04 04:04:00,72.2,53.1,29.62,SW,217,0.0,1.0,51,0.00,,---,0.00,VWS V15.00,2015-07-04 10:04:00,
2015-07-04 04:05:00,72.9,53.7,29.61,ESE,103,0.0,1.0,51,0.00,,---,0.00,VWS V15.00,2015-07-04 10:05:00,
2015-07-04 04:10:00,72.7,53.5,29.61,NW,306,0.0,0.0,51,0.00,,---,0.00,VWS V15.00,2015-07-04 10:10:00,
2015-07-04 04:13:00,72.5,52.8,29.62,South,187,0.0,1.0,50,0.00,,---,0.00,VWS V15.00,2015-07-04 10:13:00,
2015-07-04 04:14:00,72.6,52.9,29.62,WNW,294,1.0,1.0,50,0.00,,---,0.00,VWS V15.00,2015-07-04 10:14:00,
2015-07-04 04:15:00,72.6,53.5,29.61,WNW,300,0.0,1.0,51,0.00,,---,0.00,VWS V15.00,2015-07-04 10:15:00,
2015-07-04 04:16:00,72.6,52.9,29.62,NW,313,1.0,2.0,50,0.00,,---,0.00,VWS V15.00,2015-07-04 10:16:00,
2015-07-04 04:17:00,72.7,53.0,29.62,NW,314,0.0,2.0,50,0.00,,---,0.00,VWS V15.00,2015-07-04 10:17:00,
2015-07-04 04:18:00,72.8,53.1,29.62,NW,313,0.0,2.0,50,0.00,,---,0.00,VWS V15.00,2015-07-04 10:18:00,
2015-07-04 04:20:00,72.4,53.8,29.61,WNW,300,0.0,1.0,52,0.00,,---,0.00,VWS V15.00,2015-07-04 10:20:00,
2015-07-04 04:25:00,72.3,53.7,29.61,WNW,300,0.0,0.0,52,0.00,,---,0.00,VWS V15.00,2015-07-04 10:25:00,
2015-07-04 04:30:00,72.2,53.6,29.61,WNW,299,0.0,1.0,52,0.00,,---,0.00,VWS V15.00,2015-07-04 10:30:00,
2015-07-04 04:35:00,72.1,53.5,29.61,NW,311,0.0,0.0,52,0.00,,---,0.00,VWS V15.00,2015-07-04 10:35:00,
2015-07-04 04:40:00,72.1,53.0,29.61,NW,311,0.0,0.0,51,0.00,,---,0.00,VWS V15.00,2015-07-04 10:40:00,
2015-07-04 04:45:00,72.1,53.0,29.61,WNW,303,0.0,0.0,51,0.00,,---,0.00,VWS V15.00,2015-07-04 10:45:00,
2015-07-04 04:50:00,72.2,53.6,29.62,West,280,0.0,1.0,52,0.00,,---,0.00,VWS V15.00,2015-07-04 10:50:00,
2015-07-04 04:55:00,72.2,53.6,29.62,WNW,299,0.0,0.0,52,0.00,,---,0.00,VWS V15.00,2015-07-04 10:55:00,
2015-07-04 05:00:00,72.2,53.1,29.62,NW,309,1.0,1.0,51,0.00,,---,0.00,VWS V15.00,2015-07-04 11:00:00,
2015-07-04 05:05:00,72.3,53.2,29.62,SW,217,0.0,1.0,51,0.00,,---,0.00,VWS V15.00,2015-07-04 11:05:00,
2015-07-04 05:10:00,72.4,52.7,29.62,SW,229,0.0,1.0,50,0.00,,---,0.00,VWS V15.00,2015-07-04 11:10:00,
2015-07-04 05:15:00,72.6,52.9,29.62,NW,314,0.0,2.0,50,0.00,,---,0.00,VWS V15.00,2015-07-04 11:15:00,
2015-07-04 05:20:00,72.9,52.6,29.62,WSW,253,1.0,1.0,49,0.00,,---,0.00,VWS V15.00,2015-07-04 11:20:00,
2015-07-04 05:25:00,73.1,52.3,29.62,SSE,159,0.0,1.0,48,0.00,,---,0.00,VWS V15.00,2015-07-04 11:25:00,
2015-07-04 05:30:00,73.4,52.5,29.62,NW,326,0.0,1.0,48,0.00,,---,0.00,VWS V15.00,2015-07-04 11:30:00,
2015-07-04 05:35:00,73.6,52.7,29.62,WNW,300,0.0,2.0,48,0.00,,---,0.00,VWS V15.00,2015-07-04 11:35:00,
2015-07-04 05:40:00,73.7,52.8,29.63,NNW,343,0.0,1.0,48,0.00,,---,0.00,VWS V15.00,2015-07-04 11:40:00,
2015-07-04 05:44:00,72.8,54.2,29.66,SE,143,1.0,3.0,52,0.00,,---,0.00,VWS V15.00,2015-07-04 11:44:00,
2015-07-04 05:45:00,73.5,52.6,29.63,SW,222,0.0,1.0,48,0.00,,---,0.00,VWS V15.00,2015-07-04 11:45:00,
2015-07-04 05:46:00,72.9,54.3,29.66,NNW,337,0.0,2.0,52,0.00,,---,0.00,VWS V15.00,2015-07-04 11:46:00,
2015-07-04 05:47:00,72.9,53.7,29.66,SE,131,1.0,2.0,51,0.00,,---,0.00,VWS V15.00,2015-07-04 11:47:00,
2015-07-04 05:48:00,72.9,53.2,29.66,SSW,212,3.0,4.0,50,0.00,,---,0.00,VWS V15.00,2015-07-04 11:48:00,
2015-07-04 05:49:00,73.0,52.7,29.66,SW,215,1.0,4.0,49,0.00,,---,0.00,VWS V15.00,2015-07-04 11:49:00,
2015-07-04 05:50:00,73.3,53.0,29.63,NW,311,3.0,4.0,49,0.00,,---,0.00,VWS V15.00,2015-07-04 11:50:00,
2015-07-04 05:55:00,73.3,53.0,29.64,NNW,347,0.0,1.0,49,0.00,,---,0.00,VWS V15.00,2015-07-04 11:55:00,
2015-07-04 05:56:00,73.5,54.8,29.66,South,169,2.0,4.0,52,0.00,,---,0.00,VWS V15.00,2015-07-04 11:56:00,
2015-07-04 05:57:00,73.5,53.7,29.66,SE,127,3.0,4.0,50,0.00,,---,0.00,VWS V15.00,2015-07-04 11:57:00,
2015-07-04 05:58:00,73.5,53.2,29.66,SSW,208,3.0,5.0,49,0.00,,---,0.00,VWS V15.00,2015-07-04 11:58:00,
2015-07-04 05:59:00,73.6,54.4,29.66,SE,145,5.0,6.0,51,0.00,,---,0.00,VWS V15.00,2015-07-04 11:59:00,
2015-07-04 06:00:00,73.3,53.6,29.64,WSW,242,0.0,1.0,50,0.00,,---,0.00,VWS V15.00,2015-07-04 12:00:00,
2015-07-04 06:01:00,73.7,53.9,29.66,SSE,149,0.0,3.0,50,0.00,,---,0.00,VWS V15.00,2015-07-04 12:01:00,
2015-07-04 06:03:00,73.8,54.0,29.66,WNW,285,0.0,3.0,50,0.00,,---,0.00,VWS V15.00,2015-07-04 12:03:00,
2015-07-04 06:04:00,73.9,54.1,29.66,WNW,285,0.0,3.0,50,0.00,,---,0.00,VWS V15.00,2015-07-04 12:04:00,
2015-07-04 06:05:00,73.1,53.9,29.64,NW,315,0.0,0.0,51,0.00,,---,0.00,VWS V15.00,2015-07-04 12:05:00,
2015-07-04 06:06:00,74.0,54.7,29.66,WNW,285,0.0,1.0,51,0.00,,---,0.00,VWS V15.00,2015-07-04 12:06:00,
2015-07-04 06:10:00,73.0,53.8,29.65,NW,315,0.0,0.0,51,0.00,,---,0.00,VWS V15.00,2015-07-04 12:10:00,
2015-07-04 06:15:00,72.8,54.2,29.65,South,186,0.0,2.0,52,0.00,,---,0.00,VWS V15.00,2015-07-04 12:15:00,
2015-07-04 06:20:00,72.7,54.1,29.65,NNW,345,0.0,0.0,52,0.00,,---,0.00,VWS V15.00,2015-07-04 12:20:00,
2015-07-04 06:25:00,72.7,53.5,29.65,East,84,2.0,3.0,51,0.00,,---,0.00,VWS V15.00,2015-07-04 12:25:00,
2015-07-04 06:30:00,72.8,53.1,29.65,South,173,0.0,0.0,50,0.00,,---,0.00,VWS V15.00,2015-07-04 12:30:00,
2015-07-04 06:35:00,72.8,53.6,29.65,SE,136,1.0,1.0,51,0.00,,---,0.00,VWS V15.00,2015-07-04 12:35:00,
2015-07-04 06:40:00,72.8,54.2,29.65,NNE,25,0.0,0.0,52,0.00,,---,0.00,VWS V15.00,2015-07-04 12:40:00,
2015-07-04 06:45:00,72.9,54.3,29.66,NNW,338,1.0,2.0,52,0.00,,---,0.00,VWS V15.00,2015-07-04 12:45:00,
2015-07-04 06:46:00,74.4,57.7,29.67,ESE,110,0.0,0.0,56,0.00,,---,0.00,VWS V15.00,2015-07-04 12:46:00,
2015-07-04 06:47:00,74.6,57.4,29.67,ESE,110,0.0,0.0,55,0.00,,---,0.00,VWS V15.00,2015-07-04 12:47:00,
2015-07-04 06:48:00,74.7,57.5,29.67,SSE,161,2.0,2.0,55,0.00,,---,0.00,VWS V15.00,2015-07-04 12:48:00,
2015-07-04 06:50:00,73.1,53.9,29.66,ESE,117,0.0,2.0,51,0.00,,---,0.00,VWS V15.00,2015-07-04 12:50:00,
2015-07-04 06:55:00,73.5,54.8,29.66,SSE,157,1.0,2.0,52,0.00,,---,0.00,VWS V15.00,2015-07-04 12:55:00,
2015-07-04 07:00:00,73.7,53.9,29.66,SSE,148,1.0,3.0,50,0.00,,---,0.00,VWS V15.00,2015-07-04 13:00:00,
2015-07-04 07:05:00,73.9,54.7,29.66,WNW,285,0.0,1.0,51,0.00,,---,0.00,VWS V15.00,2015-07-04 13:05:00,
2015-07-04 07:10:00,74.0,55.8,29.67,WNW,284,0.0,0.0,53,0.00,,---,0.00,VWS V15.00,2015-07-04 13:10:00,
2015-07-04 07:15:00,73.9,55.7,29.67,WNW,284,0.0,1.0,53,0.00,,---,0.00,VWS V15.00,2015-07-04 13:15:00,
2015-07-04 07:20:00,73.9,56.7,29.67,WNW,284,0.0,0.0,55,0.00,,---,0.00,VWS V15.00,2015-07-04 13:20:00,
2015-07-04 07:25:00,73.9,56.2,29.67,NW,322,0.0,1.0,54,0.00,,---,0.00,VWS V15.00,2015-07-04 13:25:00,
2015-07-04 07:30:00,74.0,56.8,29.67,NW,321,0.0,0.0,55,0.00,,---,0.00,VWS V15.00,2015-07-04 13:30:00,
2015-07-04 07:35:00,74.0,56.8,29.67,NW,322,1.0,1.0,55,0.00,,---,0.00,VWS V15.00,2015-07-04 13:35:00,
2015-07-04 07:40:00,74.1,57.4,29.67,NW,322,0.0,0.0,56,0.00,,---,0.00,VWS V15.00,2015-07-04 13:40:00,
2015-07-04 07:45:00,74.4,57.7,29.67,ESE,110,0.0,0.0,56,0.00,,---,0.00,VWS V15.00,2015-07-04 13:45:00,
2015-07-04 07:50:00,75.1,56.8,29.67,SE,145,0.0,1.0,53,0.00,,---,0.00,VWS V15.00,2015-07-04 13:50:00,
2015-07-04 07:55:00,75.8,56.9,29.67,SE,145,0.0,1.0,52,0.00,,---,0.00,VWS V15.00,2015-07-04 13:55:00,
2015-07-04 08:00:00,76.2,56.8,29.67,South,181,0.0,0.0,51,0.00,,---,0.00,VWS V15.00,2015-07-04 14:00:00,
2015-07-04 08:05:00,76.3,55.8,29.67,SE,146,0.0,3.0,49,0.00,,---,0.00,VWS V15.00,2015-07-04 14:05:00,
2015-07-04 08:10:00,76.6,56.6,29.67,SE,133,0.0,2.0,50,0.00,,---,0.00,VWS V15.00,2015-07-04 14:10:00,
2015-07-04 08:15:00,76.9,56.3,29.67,SSE,152,0.0,0.0,49,0.00,,---,0.00,VWS V15.00,2015-07-04 14:15:00,
2015-07-04 08:20:00,77.2,57.7,29.67,SSE,153,1.0,1.0,51,0.00,,---,0.00,VWS V15.00,2015-07-04 14:20:00,
2015-07-04 08:25:00,77.9,58.9,29.67,SSE,152,0.0,0.0,52,0.00,,---,0.00,VWS V15.00,2015-07-04 14:25:00,
2015-07-04 08:28:00,82.5,54.4,29.66,SE,145,6.0,7.0,38,0.00,,---,0.00,VWS V15.00,2015-07-04 14:28:00,
2015-07-04 08:29:00,82.5,54.4,29.67,SE,135,4.0,10.0,38,0.00,,---,0.00,VWS V15.00,2015-07-04 14:29:00,
2015-07-04 08:30:00,78.5,54.2,29.67,SE,129,0.0,3.0,43,0.00,,---,0.00,VWS V15.00,2015-07-04 14:30:00,
2015-07-04 08:31:00,82.4,54.3,29.67,SE,145,3.0,9.0,38,0.00,,---,0.00,VWS V15.00,2015-07-04 14:31:00,
2015-07-04 08:32:00,82.4,54.3,29.66,SE,134,3.0,9.0,38,0.00,,---,0.00,VWS V15.00,2015-07-04 14:32:00,
2015-07-04 08:35:00,79.0,54.6,29.67,SE,136,0.0,1.0,43,0.00,,---,0.00,VWS V15.00,2015-07-04 14:35:00,
2015-07-04 08:40:00,79.5,54.4,29.67,SSE,151,1.0,3.0,42,0.00,,---,0.00,VWS V15.00,2015-07-04 14:40:00,
2015-07-04 08:45:00,80.1,54.3,29.67,SE,139,4.0,5.0,41,0.00,,---,0.00,VWS V15.00,2015-07-04 14:45:00,
2015-07-04 08:50:00,80.5,54.7,29.67,West,270,2.0,4.0,41,0.00,,---,0.00,VWS V15.00,2015-07-04 14:50:00,
2015-07-04 08:55:00,80.8,55.6,29.67,SSW,203,2.0,3.0,42,0.00,,---,0.00,VWS V15.00,2015-07-04 14:55:00,
2015-07-04 09:00:00,81.1,54.5,29.67,SSE,157,2.0,5.0,40,0.00,,---,0.00,VWS V15.00,2015-07-04 15:00:00,
2015-07-04 09:05:00,81.4,53.4,29.67,ESE,115,3.0,8.0,38,0.00,,---,0.00,VWS V15.00,2015-07-04 15:05:00,
2015-07-04 09:10:00,81.6,55.6,29.67,SSE,153,0.0,0.0,41,0.00,,---,0.00,VWS V15.00,2015-07-04 15:10:00,
2015-07-04 09:11:00,84.9,55.0,29.66,SE,140,1.0,5.0,36,0.00,,---,0.00,VWS V15.00,2015-07-04 15:11:00,
2015-07-04 09:12:00,84.9,59.3,29.66,SE,139,0.0,5.0,42,0.00,,---,0.00,VWS V15.00,2015-07-04 15:12:00,
2015-07-04 09:13:00,85.0,56.6,29.65,SE,139,0.0,5.0,38,0.00,,---,0.00,VWS V15.00,2015-07-04 15:13:00,
2015-07-04 09:15:00,82.2,54.1,29.67,WSW,240,2.0,6.0,38,0.00,,---,0.00,VWS V15.00,2015-07-04 15:15:00,
2015-07-04 09:20:00,82.3,54.9,29.67,SSW,210,4.0,4.0,39,0.00,,---,0.00,VWS V15.00,2015-07-04 15:20:00,
2015-07-04 09:25:00,82.3,54.2,29.66,SSE,150,4.0,6.0,38,0.00,,---,0.00,VWS V15.00,2015-07-04 15:25:00,
2015-07-04 09:30:00,82.4,54.3,29.66,WNW,288,6.0,9.0,38,0.00,,---,0.00,VWS V15.00,2015-07-04 15:30:00,
2015-07-04 09:35:00,82.3,54.2,29.66,South,174,1.0,4.0,38,0.00,,---,0.00,VWS V15.00,2015-07-04 15:35:00,
2015-07-04 09:40:00,82.7,54.5,29.66,SE,141,4.0,7.0,38,0.00,,---,0.00,VWS V15.00,2015-07-04 15:40:00,
2015-07-04 09:45:00,82.8,55.3,29.66,SSE,147,5.0,6.0,39,0.00,,---,0.00,VWS V15.00,2015-07-04 15:45:00,
2015-07-04 09:50:00,83.0,54.1,29.66,SSE,163,3.0,4.0,37,0.00,,---,0.00,VWS V15.00,2015-07-04 15:50:00,
2015-07-04 09:52:00,86.1,56.0,29.64,SE,135,3.0,3.0,36,0.00,,---,0.00,VWS V15.00,2015-07-04 15:52:00,
2015-07-04 09:53:00,86.2,56.1,29.64,SE,135,6.0,7.0,36,0.00,,---,0.00,VWS V15.00,2015-07-04 15:53:00,
2015-07-04 09:54:00,86.3,54.7,29.64,SW,224,2.0,7.0,34,0.00,,---,0.00,VWS V15.00,2015-07-04 15:54:00,
2015-07-04 09:55:00,83.5,56.0,29.66,South,180,0.0,0.0,39,0.00,,---,0.00,VWS V15.00,2015-07-04 15:55:00,
2015-07-04 09:56:00,86.3,54.7,29.64,SSW,207,2.0,2.0,34,0.00,,---,0.00,VWS V15.00,2015-07-04 15:56:00,
2015-07-04 10:00:00,84.0,55.7,29.66,SSE,150,2.0,2.0,38,0.00,,---,0.00,VWS V15.00,2015-07-04 16:00:00,
2015-07-04 10:05:00,84.5,56.1,29.66,SSE,149,3.0,4.0,38,0.00,,---,0.00,VWS V15.00,2015-07-04 16:05:00,
2015-07-04 10:10:00,84.8,54.9,29.66,SE,136,1.0,5.0,36,0.00,,---,0.00,VWS V15.00,2015-07-04 16:10:00,
2015-07-04 10:15:00,85.1,55.9,29.65,SSE,160,2.0,2.0,37,0.00,,---,0.00,VWS V15.00,2015-07-04 16:15:00,
2015-07-04 10:20:00,85.1,55.2,29.65,SE,133,2.0,3.0,36,0.00,,---,0.00,VWS V15.00,2015-07-04 16:20:00,
2015-07-04 10:25:00,85.2,56.0,29.65,SSE,152,2.0,7.0,37,0.00,,---,0.00,VWS V15.00,2015-07-04 16:25:00,
2015-07-04 10:30:00,85.6,57.1,29.65,SSE,152,1.0,1.0,38,0.00,,---,0.00,VWS V15.00,2015-07-04 16:30:00,
2015-07-04 10:34:00,90.4,58.2,29.63,SSE,148,0.0,5.0,34,0.00,,---,0.00,VWS V15.00,2015-07-04 16:34:00,
2015-07-04 10:35:00,86.1,57.5,29.65,SSE,150,0.0,0.0,38,0.00,,---,0.00,VWS V15.00,2015-07-04 16:35:00,
2015-07-04 10:36:00,90.5,57.5,29.62,SSE,148,1.0,1.0,33,0.00,,---,0.00,VWS V15.00,2015-07-04 16:36:00,
2015-07-04 10:37:00,90.5,59.9,29.62,SSE,148,0.0,1.0,36,0.00,,---,0.00,VWS V15.00,2015-07-04 16:37:00,
2015-07-04 10:38:00,90.6,59.2,29.62,SSE,152,1.0,2.0,35,0.00,,---,0.00,VWS V15.00,2015-07-04 16:38:00,
2015-07-04 10:40:00,86.6,58.7,29.65,SSE,166,4.0,4.0,39,0.00,,---,0.00,VWS V15.00,2015-07-04 16:40:00,
2015-07-04 10:41:00,90.7,59.3,29.62,SSW,195,0.0,1.0,35,0.00,,---,0.00,VWS V15.00,2015-07-04 16:41:00,
2015-07-04 10:42:00,90.7,58.5,29.62,SE,142,1.0,1.0,34,0.00,,---,0.00,VWS V15.00,2015-07-04 16:42:00,
2015-07-04 10:43:00,90.8,59.4,29.62,South,170,2.0,4.0,35,0.00,,---,0.00,VWS V15.00,2015-07-04 16:43:00,
2015-07-04 10:44:00,90.9,57.8,29.62,WSW,248,3.0,4.0,33,0.00,,---,0.00,VWS V15.00,2015-07-04 16:44:00,
2015-07-04 10:45:00,86.4,56.3,29.64,SW,234,0.0,1.0,36,0.00,,---,0.00,VWS V15.00,2015-07-04 16:45:00,
2015-07-04 10:46:00,90.9,57.0,29.62,SE,140,1.0,3.0,32,0.00,,---,0.00,VWS V15.00,2015-07-04 16:46:00,
2015-07-04 10:50:00,86.0,56.7,29.64,South,170,3.0,3.0,37,0.00,,---,0.00,VWS V15.00,2015-07-04 16:50:00,
2015-07-04 10:55:00,86.3,54.7,29.64,WSW,258,1.0,2.0,34,0.00,,---,0.00,VWS V15.00,2015-07-04 16:55:00,
2015-07-04 11:00:00,86.6,54.9,29.64,West,281,1.0,3.0,34,0.00,,---,0.00,VWS V15.00,2015-07-04 17:00:00,
2015-07-04 11:05:00,86.9,56.8,29.64,WSW,252,2.0,2.0,36,0.00,,---,0.00,VWS V15.00,2015-07-04 17:05:00,
2015-07-04 11:06:00,91.8,56.0,29.61,WNW,283,1.0,2.0,30,0.00,,---,0.00,VWS V15.00,2015-07-04 17:06:00,
2015-07-04 11:07:00,91.8,56.0,29.61,West,280,0.0,2.0,30,0.00,,---,0.00,VWS V15.00,2015-07-04 17:07:00,
2015-07-04 11:08:00,91.8,56.0,29.61,SE,141,1.0,4.0,30,0.00,,---,0.00,VWS V15.00,2015-07-04 17:08:00,
2015-07-04 11:09:00,91.8,57.8,29.61,SE,145,1.0,4.0,32,0.00,,---,0.00,VWS V15.00,2015-07-04 17:09:00,
2015-07-04 11:10:00,87.6,55.8,29.64,WNW,283,2.0,4.0,34,0.00,,---,0.00,VWS V15.00,2015-07-04 17:10:00,
2015-07-04 11:15:00,88.1,57.8,29.63,SE,141,2.0,2.0,36,0.00,,---,0.00,VWS V15.00,2015-07-04 17:15:00,
2015-07-04 11:20:00,88.4,58.1,29.63,SSE,157,1.0,1.0,36,0.00,,---,0.00,VWS V15.00,2015-07-04 17:20:00,
2015-07-04 11:25:00,89.5,59.8,29.63,SE,144,0.0,2.0,37,0.00,,---,0.00,VWS V15.00,2015-07-04 17:25:00,
2015-07-04 11:27:00,92.0,55.2,29.60,SW,227,4.0,4.0,29,0.00,,---,0.00,VWS V15.00,2015-07-04 17:27:00,
2015-07-04 11:28:00,92.0,54.3,29.60,WSW,255,6.0,6.0,28,0.00,,---,0.00,VWS V15.00,2015-07-04 17:28:00,
2015-07-04 11:29:00,91.9,54.2,29.60,WSW,253,1.0,6.0,28,0.00,,---,0.00,VWS V15.00,2015-07-04 17:29:00,
2015-07-04 11:30:00,90.2,58.1,29.63,SSE,155,1.0,1.0,34,0.00,,---,0.00,VWS V15.00,2015-07-04 17:30:00,
2015-07-04 11:31:00,91.9,58.7,29.59,West,267,2.0,3.0,33,0.00,,---,0.00,VWS V15.00,2015-07-04 17:31:00,
2015-07-04 11:32:00,91.9,55.1,29.60,SW,221,2.0,3.0,29,0.00,,---,0.00,VWS V15.00,2015-07-04 17:32:00,
2015-07-04 11:33:00,92.0,56.2,29.59,ESE,104,3.0,5.0,30,0.00,,---,0.00,VWS V15.00,2015-07-04 17:33:00,
2015-07-04 11:35:00,90.4,57.4,29.63,ESE,113,1.0,1.0,33,0.00,,---,0.00,VWS V15.00,2015-07-04 17:35:00,
2015-07-04 11:40:00,90.7,58.5,29.62,SSW,197,1.0,1.0,34,0.00,,---,0.00,VWS V15.00,2015-07-04 17:40:00,
2015-07-04 11:45:00,90.9,55.2,29.62,SE,140,1.0,3.0,30,0.00,,---,0.00,VWS V15.00,2015-07-04 17:45:00,
2015-07-04 11:49:00,91.1,59.7,29.62,NW,313,1.0,2.0,35,0.00,,---,0.00,VWS V15.00,2015-07-04 17:49:00,
2015-07-04 11:54:00,91.2,55.5,29.62,SE,139,0.0,1.0,30,0.00,,---,0.00,VWS V15.00,2015-07-04 17:54:00,
2015-07-04 11:59:00,91.6,59.3,29.62,SE,141,3.0,3.0,34,0.00,,---,0.00,VWS V15.00,2015-07-04 17:59:00,
2015-07-04 12:04:00,91.8,56.9,29.61,SW,234,1.0,2.0,31,0.00,,---,0.00,VWS V15.00,2015-07-04 18:04:00,
2015-07-04 12:09:00,91.9,59.5,29.61,NNW,341,2.0,3.0,34,0.00,,---,0.00,VWS V15.00,2015-07-04 18:09:00,
2015-07-04 12:14:00,92.2,57.2,29.60,SSE,149,0.0,0.0,31,0.00,,---,0.00,VWS V15.00,2015-07-04 18:14:00,
2015-07-04 12:19:00,92.2,54.4,29.60,SE,140,1.0,3.0,28,0.00,,---,0.00,VWS V15.00,2015-07-04 18:19:00,
2015-07-04 12:23:00,95.2,52.8,29.57,SE,132,1.0,3.0,24,0.00,,---,0.00,VWS V15.00,2015-07-04 18:23:00,
2015-07-04 12:24:00,92.0,56.2,29.60,South,174,1.0,2.0,30,0.00,,---,0.00,VWS V15.00,2015-07-04 18:24:00,
2015-07-04 12:25:00,95.2,56.0,29.56,NW,319,2.0,3.0,27,0.00,,---,0.00,VWS V15.00,2015-07-04 18:25:00,
2015-07-04 12:26:00,95.2,56.0,29.56,South,169,1.0,3.0,27,0.00,,---,0.00,VWS V15.00,2015-07-04 18:26:00,
2015-07-04 12:27:00,95.2,56.0,29.56,SSE,149,2.0,3.0,27,0.00,,---,0.00,VWS V15.00,2015-07-04 18:27:00,
2015-07-04 12:29:00,91.9,57.9,29.60,South,172,0.0,1.0,32,0.00,,---,0.00,VWS V15.00,2015-07-04 18:29:00,
2015-07-04 12:34:00,92.0,55.2,29.59,WSW,248,2.0,4.0,29,0.00,,---,0.00,VWS V15.00,2015-07-04 18:34:00,
2015-07-04 12:39:00,91.9,57.0,29.59,SW,225,1.0,1.0,31,0.00,,---,0.00,VWS V15.00,2015-07-04 18:39:00,
2015-07-04 12:44:00,92.2,55.4,29.58,SW,233,2.0,4.0,29,0.00,,---,0.00,VWS V15.00,2015-07-04 18:44:00,
2015-07-04 12:45:00,95.6,56.3,29.55,SSE,158,1.0,2.0,27,0.00,,---,0.00,VWS V15.00,2015-07-04 18:45:00,
2015-07-04 12:46:00,95.5,56.2,29.55,SE,145,1.0,3.0,27,0.00,,---,0.00,VWS V15.00,2015-07-04 18:46:00,
2015-07-04 12:47:00,95.5,56.2,29.55,SW,232,2.0,3.0,27,0.00,,---,0.00,VWS V15.00,2015-07-04 18:47:00,
2015-07-04 12:48:00,95.5,57.2,29.55,SE,127,2.0,3.0,28,0.00,,---,0.00,VWS V15.00,2015-07-04 18:48:00,
2015-07-04 12:49:00,92.5,59.2,29.58,SE,142,4.0,4.0,33,0.00,,---,0.00,VWS V15.00,2015-07-04 18:49:00,
2015-07-04 12:54:00,92.9,55.0,29.58,North,1,3.0,3.0,28,0.00,,---,0.00,VWS V15.00,2015-07-04 18:54:00,
2015-07-04 12:59:00,93.0,57.9,29.58,SE,142,1.0,2.0,31,0.00,,---,0.00,VWS V15.00,2015-07-04 18:59:00,
2015-07-04 13:04:00,93.6,56.6,29.57,ESE,108,1.0,2.0,29,0.00,,---,0.00,VWS V15.00,2015-07-04 19:04:00,
2015-07-04 13:05:00,94.3,55.2,29.54,NNE,33,2.0,3.0,27,0.00,,---,0.00,VWS V15.00,2015-07-04 19:05:00,
2015-07-04 13:06:00,94.1,56.0,29.54,NW,326,0.0,4.0,28,0.00,,---,0.00,VWS V15.00,2015-07-04 19:06:00,
2015-07-04 13:07:00,94.0,56.9,29.54,NW,326,1.0,4.0,29,0.00,,---,0.00,VWS V15.00,2015-07-04 19:07:00,
2015-07-04 13:08:00,93.9,55.9,29.54,NW,325,0.0,4.0,28,0.00,,---,0.00,VWS V15.00,2015-07-04 19:08:00,
2015-07-04 13:09:00,94.1,52.9,29.57,SSE,155,0.0,1.0,25,0.00,,---,0.00,VWS V15.00,2015-07-04 19:09:00,
2015-07-04 13:14:00,94.4,57.3,29.57,SE,146,0.0,0.0,29,0.00,,---,0.00,VWS V15.00,2015-07-04 19:14:00,
2015-07-04 13:19:00,95.1,58.8,29.57,SSE,155,0.0,0.0,30,0.00,,---,0.00,VWS V15.00,2015-07-04 19:19:00,
2015-07-04 13:24:00,95.2,56.0,29.56,SSE,154,1.0,1.0,27,0.00,,---,0.00,VWS V15.00,2015-07-04 19:24:00,
2015-07-04 13:29:00,95.2,57.0,29.56,SSE,155,0.0,0.0,28,0.00,,---,0.00,VWS V15.00,2015-07-04 19:29:00,
2015-07-04 13:34:00,95.4,56.2,29.56,SSW,195,2.0,2.0,27,0.00,,---,0.00,VWS V15.00,2015-07-04 19:34:00,
2015-07-04 13:39:00,95.7,58.4,29.56,SE,144,2.0,3.0,29,0.00,,---,0.00,VWS V15.00,2015-07-04 19:39:00,
2015-07-04 13:44:00,95.6,56.3,29.55,SSE,158,1.0,2.0,27,0.00,,---,0.00,VWS V15.00,2015-07-04 19:44:00,
2015-07-04 13:49:00,95.4,56.2,29.55,SW,224,2.0,2.0,27,0.00,,---,0.00,VWS V15.00,2015-07-04 19:49:00,
2015-07-04 13:54:00,95.4,55.1,29.55,SE,130,1.0,1.0,26,0.00,,---,0.00,VWS V15.00,2015-07-04 19:54:00,
2015-07-04 13:58:00,94.9,52.5,29.51,NNW,333,2.0,2.0,24,0.00,,---,0.00,VWS V15.00,2015-07-04 19:58:00,
2015-07-04 13:59:00,95.2,53.9,29.54,NNE,20,3.0,4.0,25,0.00,,---,0.00,VWS V15.00,2015-07-04 19:59:00,
2015-07-04 14:00:00,94.7,55.6,29.51,NNW,333,0.0,0.0,27,0.00,,---,0.00,VWS V15.00,2015-07-04 20:00:00,
2015-07-04 14:01:00,94.6,57.5,29.51,NNW,333,0.0,1.0,29,0.00,,---,0.00,VWS V15.00,2015-07-04 20:01:00,
2015-07-04 14:02:00,94.6,56.5,29.51,NNW,333,0.0,1.0,28,0.00,,---,0.00,VWS V15.00,2015-07-04 20:02:00,
2015-07-04 14:04:00,94.3,57.2,29.54,ENE,63,3.0,3.0,29,0.00,,---,0.00,VWS V15.00,2015-07-04 20:04:00,
2015-07-04 14:06:00,95.1,57.9,29.51,ESE,118,0.0,2.0,29,0.00,,---,0.00,VWS V15.00,2015-07-04 20:06:00,
2015-07-04 14:07:00,95.2,58.0,29.51,SE,138,2.0,2.0,29,0.00,,---,0.00,VWS V15.00,2015-07-04 20:07:00,
2015-07-04 14:08:00,95.5,55.2,29.51,ESE,117,0.0,2.0,26,0.00,,---,0.00,VWS V15.00,2015-07-04 20:08:00,
2015-07-04 14:09:00,94.0,56.0,29.54,North,5,1.0,1.0,28,0.00,,---,0.00,VWS V15.00,2015-07-04 20:09:00,
2015-07-04 14:11:00,95.9,55.5,29.51,SW,228,0.0,2.0,26,0.00,,---,0.00,VWS V15.00,2015-07-04 20:11:00,
2015-07-04 14:12:00,96.0,59.6,29.51,West,266,2.0,2.0,30,0.00,,---,0.00,VWS V15.00,2015-07-04 20:12:00,
2015-07-04 14:13:00,96.1,55.7,29.51,West,262,2.0,2.0,26,0.00,,---,0.00,VWS V15.00,2015-07-04 20:13:00,
2015-07-04 14:14:00,94.5,54.3,29.54,WSW,242,1.0,2.0,26,0.00,,---,0.00,VWS V15.00,2015-07-04 20:14:00,
2015-07-04 14:15:00,96.3,55.9,29.51,SW,235,1.0,2.0,26,0.00,,---,0.00,VWS V15.00,2015-07-04 20:15:00,
2015-07-04 14:19:00,94.4,55.3,29.54,SSE,163,0.0,3.0,27,0.00,,---,0.00,VWS V15.00,2015-07-04 20:19:00,
2015-07-04 14:24:00,93.7,56.7,29.54,SSE,160,0.0,1.0,29,0.00,,---,0.00,VWS V15.00,2015-07-04 20:24:00,
2015-07-04 14:29:00,92.7,56.8,29.54,SSE,159,0.0,0.0,30,0.00,,---,0.00,VWS V15.00,2015-07-04 20:29:00,
2015-07-04 14:34:00,91.6,54.9,29.53,South,169,1.0,1.0,29,0.00,,---,0.00,VWS V15.00,2015-07-04 20:34:00,
2015-07-04 14:39:00,91.2,59.8,29.53,SE,146,1.0,1.0,35,0.00,,---,0.00,VWS V15.00,2015-07-04 20:39:00,
2015-07-04 14:44:00,92.3,59.9,29.52,ESE,113,1.0,7.0,34,0.00,,---,0.00,VWS V15.00,2015-07-04 20:44:00,
2015-07-04 14:49:00,93.4,54.5,29.52,SW,222,1.0,6.0,27,0.00,,---,0.00,VWS V15.00,2015-07-04 20:49:00,
2015-07-04 14:54:00,94.7,56.6,29.52,WNW,302,1.0,4.0,28,0.00,,---,0.00,VWS V15.00,2015-07-04 20:54:00,
2015-07-04 14:59:00,94.7,55.6,29.52,NNW,333,0.0,2.0,27,0.00,,---,0.00,VWS V15.00,2015-07-04 20:59:00,
2015-07-04 15:04:00,94.8,57.6,29.51,ESE,114,2.0,2.0,29,0.00,,---,0.00,VWS V15.00,2015-07-04 21:04:00,
2015-07-04 15:09:00,95.8,56.5,29.51,SSW,195,1.0,3.0,27,0.00,,---,0.00,VWS V15.00,2015-07-04 21:09:00,
2015-07-04 15:14:00,96.3,55.9,29.51,SW,235,1.0,2.0,26,0.00,,---,0.00,VWS V15.00,2015-07-04 21:14:00,
2015-07-04 15:19:00,96.1,53.5,29.51,West,269,1.0,4.0,24,0.00,,---,0.00,VWS V15.00,2015-07-04 21:19:00,
2015-07-04 15:24:00,96.4,52.6,29.51,ESE,121,3.0,3.0,23,0.00,,---,0.00,VWS V15.00,2015-07-04 21:24:00,
2015-07-04 15:29:00,96.4,54.9,29.51,SW,232,1.0,7.0,25,0.00,,---,0.00,VWS V15.00,2015-07-04 21:29:00,
2015-07-04 15:34:00,95.6,56.3,29.50,NW,308,3.0,4.0,27,0.00,,---,0.00,VWS V15.00,2015-07-04 21:34:00,
2015-07-04 15:35:00,95.8,57.5,29.49,SSE,155,1.0,2.0,28,0.00,,---,0.00,VWS V15.00,2015-07-04 21:35:00,
2015-07-04 15:36:00,96.0,56.7,29.49,SE,145,1.0,2.0,27,0.00,,---,0.00,VWS V15.00,2015-07-04 21:36:00,
2015-07-04 15:37:00,96.2,56.8,29.49,SSE,163,2.0,3.0,27,0.00,,---,0.00,VWS V15.00,2015-07-04 21:37:00,
2015-07-04 15:38:00,96.3,56.9,29.48,SSE,158,2.0,3.0,27,0.00,,---,0.00,VWS V15.00,2015-07-04 21:38:00,
2015-07-04 15:39:00,95.1,55.9,29.50,ESE,123,1.0,4.0,27,0.00,,---,0.00,VWS V15.00,2015-07-04 21:39:00,
2015-07-04 15:44:00,94.6,53.4,29.50,NNW,335,1.0,3.0,25,0.00,,---,0.00,VWS V15.00,2015-07-04 21:44:00,
2015-07-04 15:49:00,94.6,54.4,29.50,SSW,205,1.0,2.0,26,0.00,,---,0.00,VWS V15.00,2015-07-04 21:49:00,
2015-07-04 15:54:00,95.1,54.9,29.50,SW,236,4.0,5.0,26,0.00,,---,0.00,VWS V15.00,2015-07-04 21:54:00,
2015-07-04 15:59:00,94.5,55.4,29.50,South,183,3.0,5.0,27,0.00,,---,0.00,VWS V15.00,2015-07-04 21:59:00,
2015-07-04 16:04:00,93.8,54.8,29.50,SSW,204,2.0,7.0,27,0.00,,---,0.00,VWS V15.00,2015-07-04 22:04:00,
2015-07-04 16:09:00,93.7,55.7,29.50,ESE,104,5.0,5.0,28,0.00,,---,0.00,VWS V15.00,2015-07-04 22:09:00,
2015-07-04 16:14:00,94.1,56.0,29.50,WSW,238,2.0,6.0,28,0.00,,---,0.00,VWS V15.00,2015-07-04 22:14:00,
2015-07-04 16:19:00,94.9,56.7,29.49,SSE,156,4.0,6.0,28,0.00,,---,0.00,VWS V15.00,2015-07-04 22:19:00,
2015-07-04 16:24:00,95.1,54.9,29.49,SSW,211,1.0,6.0,26,0.00,,---,0.00,VWS V15.00,2015-07-04 22:24:00,
2015-07-04 16:26:00,97.7,60.1,29.47,SE,131,0.0,1.0,29,0.00,,---,0.00,VWS V15.00,2015-07-04 22:26:00,
2015-07-04 16:27:00,97.8,58.2,29.47,SE,143,1.0,1.0,27,0.00,,---,0.00,VWS V15.00,2015-07-04 22:27:00,
2015-07-04 16:28:00,97.9,58.3,29.47,SE,134,0.0,1.0,27,0.00,,---,0.00,VWS V15.00,2015-07-04 22:28:00,
2015-07-04 16:29:00,95.5,54.1,29.49,WNW,286,2.0,4.0,25,0.00,,---,0.00,VWS V15.00,2015-07-04 22:29:00,
2015-07-04 16:30:00,98.1,55.2,29.47,SSW,210,1.0,1.0,24,0.00,,---,0.00,VWS V15.00,2015-07-04 22:30:00,
2015-07-04 16:34:00,95.7,57.4,29.49,South,174,0.0,5.0,28,0.00,,---,0.00,VWS V15.00,2015-07-04 22:34:00,
2015-07-04 16:39:00,96.6,53.9,29.48,SSE,155,1.0,4.0,24,0.00,,---,0.00,VWS V15.00,2015-07-04 22:39:00,
2015-07-04 16:40:00,98.4,59.7,29.47,SSE,162,0.0,1.0,28,0.00,,---,0.00,VWS V15.00,2015-07-04 22:40:00,
2015-07-04 16:41:00,98.4,58.7,29.47,SSE,162,0.0,0.0,27,0.00,,---,0.00,VWS V15.00,2015-07-04 22:41:00,
2015-07-04 16:42:00,98.5,59.8,29.47,SSE,162,0.0,0.0,28,0.00,,---,0.00,VWS V15.00,2015-07-04 22:42:00,
2015-07-04 16:43:00,98.5,57.7,29.47,SSE,167,2.0,2.0,26,0.00,,---,0.00,VWS V15.00,2015-07-04 22:43:00,
2015-07-04 16:44:00,96.6,56.1,29.48,SSE,148,1.0,4.0,26,0.00,,---,0.00,VWS V15.00,2015-07-04 22:44:00,
2015-07-04 16:49:00,96.3,53.7,29.48,SSW,205,4.0,7.0,24,0.00,,---,0.00,VWS V15.00,2015-07-04 22:49:00,
2015-07-04 16:54:00,95.8,54.4,29.48,SSE,152,3.0,6.0,25,0.00,,---,0.00,VWS V15.00,2015-07-04 22:54:00,
2015-07-04 16:59:00,95.7,55.4,29.47,SW,236,3.0,6.0,26,0.00,,---,0.00,VWS V15.00,2015-07-04 22:59:00,
2015-07-04 17:01:00,94.4,57.3,29.47,SSE,150,0.0,0.0,29,0.00,,---,0.00,VWS V15.00,2015-07-04 23:01:00,
2015-07-04 17:02:00,94.3,55.2,29.47,SSE,149,0.0,0.0,27,0.00,,---,0.00,VWS V15.00,2015-07-04 23:02:00,
2015-07-04 17:03:00,94.1,55.0,29.47,SSE,149,0.0,0.0,27,0.00,,---,0.00,VWS V15.00,2015-07-04 23:03:00,
2015-07-04 17:04:00,95.6,55.3,29.47,WNW,301,2.0,3.0,26,0.00,,---,0.00,VWS V15.00,2015-07-04 23:04:00,
2015-07-04 17:05:00,93.8,55.8,29.47,SSE,149,0.0,0.0,28,0.00,,---,0.00,VWS V15.00,2015-07-04 23:05:00,
2015-07-04 17:09:00,96.0,55.6,29.47,South,176,0.0,2.0,26,0.00,,---,0.00,VWS V15.00,2015-07-04 23:09:00,
2015-07-04 17:14:00,96.6,55.0,29.47,ESE,121,1.0,3.0,25,0.00,,---,0.00,VWS V15.00,2015-07-04 23:14:00,
2015-07-04 17:19:00,96.8,55.2,29.47,SE,131,0.0,3.0,25,0.00,,---,0.00,VWS V15.00,2015-07-04 23:19:00,
2015-07-04 17:24:00,97.4,55.7,29.47,SE,130,0.0,1.0,25,0.00,,---,0.00,VWS V15.00,2015-07-04 23:24:00,
2015-07-04 17:29:00,98.1,55.2,29.47,WSW,246,1.0,1.0,24,0.00,,---,0.00,VWS V15.00,2015-07-04 23:29:00,
2015-07-04 17:34:00,98.2,56.4,29.47,SSE,162,2.0,2.0,25,0.00,,---,0.00,VWS V15.00,2015-07-04 23:34:00,
2015-07-04 17:39:00,98.4,59.7,29.47,SSE,162,0.0,1.0,28,0.00,,---,0.00,VWS V15.00,2015-07-04 23:39:00,
2015-07-04 17:44:00,98.4,55.4,29.47,SE,128,1.0,4.0,24,0.00,,---,0.00,VWS V15.00,2015-07-04 23:44:00,
2015-07-04 17:49:00,97.7,56.0,29.47,SE,127,0.0,1.0,25,0.00,,---,0.00,VWS V15.00,2015-07-04 23:49:00,
2015-07-04 17:54:00,96.2,55.8,29.47,NNW,344,0.0,2.0,26,0.00,,---,0.00,VWS V15.00,2015-07-04 23:54:00,
2015-07-04 17:59:00,94.7,54.5,29.47,SSE,149,0.0,3.0,26,0.00,,---,0.00,VWS V15.00,2015-07-04 23:59:00,
2015-07-04 18:04:00,93.9,54.9,29.47,SSE,149,0.0,0.0,27,0.00,,---,0.00,VWS V15.00,2015-07-05 00:04:00,
2015-07-04 18:09:00,93.3,55.4,29.47,SSE,149,0.0,0.0,28,0.00,,---,0.00,VWS V15.00,2015-07-05 00:09:00,
2015-07-04 18:14:00,92.4,55.6,29.47,SSE,149,0.0,1.0,29,0.00,,---,0.00,VWS V15.00,2015-07-05 00:14:00,
2015-07-04 18:19:00,91.4,54.7,29.47,SSE,149,0.0,0.0,29,0.00,,---,0.00,VWS V15.00,2015-07-05 00:19:00,
2015-07-04 18:24:00,90.7,56.8,29.46,SSE,149,0.0,1.0,32,0.00,,---,0.00,VWS V15.00,2015-07-05 00:24:00,
2015-07-04 18:29:00,90.0,56.2,29.46,SSE,149,0.0,0.0,32,0.00,,---,0.00,VWS V15.00,2015-07-05 00:29:00,
2015-07-04 18:34:00,89.6,55.9,29.47,SSE,150,0.0,0.0,32,0.00,,---,0.00,VWS V15.00,2015-07-05 00:34:00,
2015-07-04 18:39:00,89.1,55.4,29.47,SE,131,0.0,2.0,32,0.00,,---,0.00,VWS V15.00,2015-07-05 00:39:00,
2015-07-04 18:44:00,88.6,54.1,29.47,SE,137,0.0,2.0,31,0.00,,---,0.00,VWS V15.00,2015-07-05 00:44:00,
2015-07-04 18:49:00,88.4,54.8,29.47,SW,236,0.0,5.0,32,0.00,,---,0.00,VWS V15.00,2015-07-05 00:49:00,
2015-07-04 18:54:00,88.3,53.0,29.47,SW,233,0.0,5.0,30,0.00,,---,0.00,VWS V15.00,2015-07-05 00:54:00,
2015-07-04 18:56:00,88.2,52.9,29.48,SE,124,0.0,0.0,30,0.00,,---,0.00,VWS V15.00,2015-07-05 00:56:00,
2015-07-04 18:57:00,88.1,53.7,29.47,SE,124,0.0,0.0,31,0.00,,---,0.00,VWS V15.00,2015-07-05 00:57:00,
2015-07-04 18:58:00,88.0,53.6,29.47,SE,124,1.0,1.0,31,0.00,,---,0.00,VWS V15.00,2015-07-05 00:58:00,
2015-07-04 18:59:00,88.3,53.9,29.47,SE,145,4.0,9.0,31,0.00,,---,0.00,VWS V15.00,2015-07-05 00:59:00,
2015-07-04 19:00:00,87.8,54.3,29.47,SE,124,0.0,1.0,32,0.00,,---,0.00,VWS V15.00,2015-07-05 01:00:00,
2015-07-04 19:04:00,88.5,53.1,29.47,SW,217,1.0,9.0,30,0.00,,---,0.00,VWS V15.00,2015-07-05 01:04:00,
2015-07-04 19:09:00,88.8,54.3,29.47,South,180,0.0,2.0,31,0.00,,---,0.00,VWS V15.00,2015-07-05 01:09:00,
2015-07-04 19:14:00,89.0,52.7,29.47,SW,235,1.0,4.0,29,0.00,,---,0.00,VWS V15.00,2015-07-05 01:14:00,
2015-07-04 19:19:00,89.2,52.8,29.48,SW,221,2.0,3.0,29,0.00,,---,0.00,VWS V15.00,2015-07-05 01:19:00,
2015-07-04 19:24:00,89.4,52.0,29.48,SW,224,0.0,2.0,28,0.00,,---,0.00,VWS V15.00,2015-07-05 01:24:00,
2015-07-04 19:29:00,89.4,53.0,29.47,ESE,114,0.0,2.0,29,0.00,,---,0.00,VWS V15.00,2015-07-05 01:29:00,
2015-07-04 19:34:00,89.3,53.8,29.48,ESE,120,2.0,3.0,30,0.00,,---,0.00,VWS V15.00,2015-07-05 01:34:00,
2015-07-04 19:39:00,89.2,52.8,29.48,SW,214,2.0,3.0,29,0.00,,---,0.00,VWS V15.00,2015-07-05 01:39:00,
2015-07-04 19:44:00,88.9,52.6,29.48,WSW,242,0.0,2.0,29,0.00,,---,0.00,VWS V15.00,2015-07-05 01:44:00,
2015-07-04 19:49:00,88.7,53.3,29.48,South,180,1.0,2.0,30,0.00,,---,0.00,VWS V15.00,2015-07-05 01:49:00,
2015-07-04 19:54:00,83.2,52.7,29.50,NNW,344,1.0,4.0,35,0.00,,---,0.00,VWS V15.00,2015-07-05 01:54:00,
2015-07-04 19:55:00,83.3,52.8,29.50,NNW,343,2.0,4.0,35,0.00,,---,0.00,VWS V15.00,2015-07-05 01:55:00,
2015-07-04 19:56:00,83.3,52.8,29.50,North,350,2.0,2.0,35,0.00,,---,0.00,VWS V15.00,2015-07-05 01:56:00,
2015-07-04 19:57:00,83.4,52.9,29.50,NNW,341,2.0,4.0,35,0.00,,---,0.00,VWS V15.00,2015-07-05 01:57:00,
2015-07-04 19:59:00,87.8,54.3,29.47,SE,124,0.0,1.0,32,0.00,,---,0.00,VWS V15.00,2015-07-05 01:59:00,
2015-07-04 20:00:00,83.6,52.3,29.50,NNW,335,2.0,5.0,34,0.00,,---,0.00,VWS V15.00,2015-07-05 02:00:00,
2015-07-04 20:01:00,83.6,52.3,29.50,NNW,342,2.0,4.0,34,0.00,,---,0.00,VWS V15.00,2015-07-05 02:01:00,
2015-07-04 20:02:00,83.7,52.4,29.50,North,358,3.0,4.0,34,0.00,,---,0.00,VWS V15.00,2015-07-05 02:02:00,
2015-07-04 20:03:00,83.7,51.6,29.50,NNW,343,2.0,4.0,33,0.00,,---,0.00,VWS V15.00,2015-07-05 02:03:00,
2015-07-04 20:04:00,87.0,52.7,29.48,SE,124,0.0,0.0,31,0.00,,---,0.00,VWS V15.00,2015-07-05 02:04:00,
2015-07-04 20:09:00,86.4,52.2,29.48,ESE,114,0.0,2.0,31,0.00,,---,0.00,VWS V15.00,2015-07-05 02:09:00,
2015-07-04 20:14:00,85.9,52.7,29.48,ESE,114,0.0,1.0,32,0.00,,---,0.00,VWS V15.00,2015-07-05 02:14:00,
2015-07-04 20:19:00,85.5,53.1,29.48,ESE,113,0.0,0.0,33,0.00,,---,0.00,VWS V15.00,2015-07-05 02:19:00,
2015-07-04 20:24:00,85.0,54.3,29.48,ESE,115,0.0,0.0,35,0.00,,---,0.00,VWS V15.00,2015-07-05 02:24:00,
2015-07-04 20:29:00,84.6,54.0,29.49,ESE,113,0.0,0.0,35,0.00,,---,0.00,VWS V15.00,2015-07-05 02:29:00,
2015-07-04 20:34:00,84.1,53.5,29.49,ESE,115,0.0,0.0,35,0.00,,---,0.00,VWS V15.00,2015-07-05 02:34:00,
2015-07-04 20:38:00,83.7,53.2,29.49,ESE,113,0.0,0.0,35,0.00,,---,0.00,VWS V15.00,2015-07-05 02:38:00,
2015-07-04 20:43:00,83.4,54.4,29.49,ESE,113,0.0,0.0,37,0.00,,---,0.00,VWS V15.00,2015-07-05 02:43:00,
2015-07-04 20:48:00,83.2,54.2,29.50,NNW,341,1.0,3.0,37,0.00,,---,0.00,VWS V15.00,2015-07-05 02:48:00,
2015-07-04 20:53:00,83.2,52.7,29.50,NNW,344,1.0,4.0,35,0.00,,---,0.00,VWS V15.00,2015-07-05 02:53:00,
2015-07-04 20:58:00,83.5,52.2,29.50,NNW,336,1.0,5.0,34,0.00,,---,0.00,VWS V15.00,2015-07-05 02:58:00,
2015-07-04 21:03:00,83.7,52.4,29.50,NW,325,0.0,4.0,34,0.00,,---,0.00,VWS V15.00,2015-07-05 03:03:00,
2015-07-04 21:08:00,83.5,52.2,29.51,NW,306,1.0,3.0,34,0.00,,---,0.00,VWS V15.00,2015-07-05 03:08:00,
2015-07-04 21:13:00,83.3,52.0,29.51,West,269,1.0,6.0,34,0.00,,---,0.00,VWS V15.00,2015-07-05 03:13:00,
2015-07-04 21:18:00,83.0,52.6,29.51,North,359,2.0,6.0,35,0.00,,---,0.00,VWS V15.00,2015-07-05 03:18:00,
2015-07-04 21:23:00,82.9,52.5,29.51,East,93,6.0,7.0,35,0.00,,---,0.00,VWS V15.00,2015-07-05 03:23:00,
2015-07-04 21:28:00,82.7,53.1,29.51,WNW,297,0.0,6.0,36,0.00,,---,0.00,VWS V15.00,2015-07-05 03:28:00,
2015-07-04 21:33:00,82.5,52.9,29.52,NW,315,0.0,6.0,36,0.00,,---,0.00,VWS V15.00,2015-07-05 03:33:00,
2015-07-04 21:34:00,80.5,54.0,29.56,NNW,342,0.0,2.0,40,0.00,,---,0.00,VWS V15.00,2015-07-05 03:34:00,
2015-07-04 21:35:00,80.4,53.2,29.56,NNW,341,0.0,2.0,39,0.00,,---,0.00,VWS V15.00,2015-07-05 03:35:00,
2015-07-04 21:38:00,82.3,52.7,29.52,North,354,1.0,5.0,36,0.00,,---,0.00,VWS V15.00,2015-07-05 03:38:00,
2015-07-04 21:43:00,82.1,52.5,29.52,SW,221,1.0,4.0,36,0.00,,---,0.00,VWS V15.00,2015-07-05 03:43:00,
2015-07-04 21:48:00,81.9,52.3,29.53,West,271,2.0,4.0,36,0.00,,---,0.00,VWS V15.00,2015-07-05 03:48:00,
2015-07-04 21:53:00,81.7,52.9,29.53,NNE,12,0.0,4.0,37,0.00,,---,0.00,VWS V15.00,2015-07-05 03:53:00,
2015-07-04 21:58:00,81.6,52.8,29.53,WNW,290,2.0,4.0,37,0.00,,---,0.00,VWS V15.00,2015-07-05 03:58:00,
2015-07-04 22:03:00,81.3,52.6,29.54,NNW,343,2.0,6.0,37,0.00,,---,0.00,VWS V15.00,2015-07-05 04:03:00,
2015-07-04 22:08:00,81.1,52.4,29.54,NW,322,1.0,7.0,37,0.00,,---,0.00,VWS V15.00,2015-07-05 04:08:00,
2015-07-04 22:13:00,80.9,52.9,29.54,NNW,328,1.0,4.0,38,0.00,,---,0.00,VWS V15.00,2015-07-05 04:13:00,
2015-07-04 22:18:00,80.8,52.8,29.55,WSW,243,0.0,4.0,38,0.00,,---,0.00,VWS V15.00,2015-07-05 04:18:00,
2015-07-04 22:23:00,80.8,52.8,29.55,SW,224,1.0,4.0,38,0.00,,---,0.00,VWS V15.00,2015-07-05 04:23:00,
2015-07-04 22:28:00,80.6,53.4,29.56,NW,316,0.0,2.0,39,0.00,,---,0.00,VWS V15.00,2015-07-05 04:28:00,
2015-07-04 22:33:00,80.5,54.0,29.56,NNW,341,0.0,2.0,40,0.00,,---,0.00,VWS V15.00,2015-07-05 04:33:00,